contact:dominique.lefevre@mio.osupytheas.fr, maurice.libes@osupytheas.fr, didier.mallarino@osupytheas.fr
Project:EMSO http://www.emso-fr.org/EMSO-France
Depth: 2436.0 m
Title:EMSO Ligure Ouest : Data MII capteur AQUADOPP
Date,Latitude,Longitude,X_East,Y_North,Z_Up,Amplitude_X,Amplitude_Y,Amplitude_Z,Batterie,SoundSpeed,Heading,Pitch,Roll,Pressure,TIS,Speed,Direction
, degrees North, degrees East, m.s-1, m.s-1,m.s-1, 1, 1, 1, Volt, m.s-1, degree, degree, degree, dbar, degree_C, m.s-1, degree
2021-05-19T00:04:03,42.805,6.029,-0.041,0.015,0.01,102.0,102.0,100.0,13.3,1505.2,326.1,-0.8,1.8,2470.578,13.28,0.043,290.1
2021-05-19T00:07:03,42.805,6.029,-0.042,0.006,-0.014,102.0,103.0,101.0,13.4,1505.2,325.3,-0.7,1.8,2470.584,13.28,0.042,278.1
2021-05-19T00:10:03,42.805,6.029,-0.07,0.005,-0.015,102.0,102.0,100.0,13.4,1505.2,323.9,-0.7,1.8,2470.562,13.28,0.07,274.1
2021-05-19T00:13:03,42.805,6.029,-0.089,0.007,-0.004,99.0,101.0,102.0,13.4,1505.2,327.9,-0.8,1.8,2470.549,13.28,0.089,274.5
2021-05-19T00:16:03,42.805,6.029,-0.098,0.012,-0.003,100.0,103.0,100.0,13.4,1505.2,324.3,-0.7,1.8,2470.588,13.28,0.098,277.0
2021-05-19T00:19:03,42.805,6.029,-0.104,0.006,-0.026,102.0,101.0,100.0,13.3,1505.2,326.3,-0.8,1.8,2470.59,13.28,0.104,273.3
2021-05-19T00:22:03,42.805,6.029,-0.056,-0.002,-0.008,100.0,102.0,100.0,13.3,1505.2,324.1,-0.7,1.9,2470.559,13.28,0.056,268.0
2021-05-19T00:25:03,42.805,6.029,-0.074,-0.003,-0.014,100.0,102.0,100.0,13.4,1505.2,325.3,-0.8,1.8,2470.526,13.28,0.074,267.7
2021-05-19T00:28:03,42.805,6.029,-0.053,0.015,0.017,100.0,102.0,100.0,13.3,1505.2,328.4,-0.8,1.8,2470.568,13.28,0.055,285.8
2021-05-19T00:31:03,42.805,6.029,-0.08,0.009,-0.025,102.0,101.0,101.0,13.4,1505.2,327.5,-0.8,1.8,2470.562,13.28,0.08,276.4
2021-05-19T00:34:03,42.805,6.029,-0.09,0.022,0.003,101.0,101.0,100.0,13.4,1505.2,326.6,-0.8,1.8,2470.536,13.28,0.092,283.7
2021-05-19T00:37:03,42.805,6.029,-0.069,0.017,-0.02,101.0,101.0,101.0,13.3,1505.2,329.0,-0.7,1.8,2470.547,13.28,0.071,283.8
2021-05-19T00:40:03,42.805,6.029,-0.066,-0.003,-0.017,101.0,101.0,100.0,13.3,1505.2,327.5,-0.8,1.8,2470.55,13.28,0.066,267.4
2021-05-19T00:43:03,42.805,6.029,-0.066,0.012,-0.02,101.0,101.0,101.0,13.4,1505.2,326.5,-0.8,1.8,2470.554,13.28,0.067,280.3
2021-05-19T00:46:03,42.805,6.029,-0.064,0.0,-0.035,101.0,100.0,99.0,13.4,1505.2,328.4,-0.7,1.8,2470.571,13.28,0.063,270.0
2021-05-19T00:49:03,42.805,6.029,-0.053,0.011,0.02,101.0,102.0,99.0,13.4,1505.2,324.0,-0.8,1.8,2470.536,13.28,0.054,281.7
2021-05-19T00:52:03,42.805,6.029,-0.034,-0.006,-0.01,103.0,100.0,101.0,13.3,1505.2,327.8,-0.7,1.8,2470.54,13.28,0.034,260.0
2021-05-19T00:55:03,42.805,6.029,-0.066,0.001,0.0,102.0,101.0,101.0,13.4,1505.2,328.2,-0.8,1.8,2470.562,13.28,0.066,270.9
2021-05-19T00:58:03,42.805,6.029,-0.065,-0.009,-0.017,101.0,101.0,101.0,13.4,1505.2,324.6,-0.7,1.8,2470.54,13.28,0.065,262.1
2021-05-19T01:04:03,42.805,6.029,-0.071,0.005,-0.005,102.0,102.0,100.0,13.4,1505.2,324.4,-0.7,1.8,2470.567,13.28,0.071,274.0
2021-05-19T01:07:03,42.805,6.029,-0.069,-0.005,-0.021,102.0,100.0,101.0,13.4,1505.2,328.9,-0.7,1.8,2470.545,13.28,0.069,265.9
2021-05-19T01:10:03,42.805,6.029,-0.076,0.017,0.008,103.0,100.0,101.0,13.4,1505.2,327.2,-0.7,1.8,2470.552,13.28,0.077,282.6
2021-05-19T01:13:03,42.805,6.029,-0.078,0.003,-0.006,101.0,103.0,100.0,13.4,1505.2,325.3,-0.8,1.9,2470.547,13.28,0.078,272.2
2021-05-19T01:16:03,42.805,6.029,-0.04,0.003,0.016,102.0,103.0,101.0,13.4,1505.2,326.0,-0.8,1.8,2470.605,13.28,0.04,274.3
2021-05-19T01:19:03,42.805,6.029,-0.064,0.038,0.02,103.0,102.0,100.0,13.4,1505.2,329.6,-0.7,1.8,2470.56,13.28,0.074,300.7
2021-05-19T01:22:03,42.805,6.029,-0.067,-0.011,-0.012,102.0,102.0,100.0,13.3,1505.2,326.2,-0.7,1.8,2470.559,13.28,0.067,260.7
2021-05-19T01:25:03,42.805,6.029,-0.095,0.004,-0.014,102.0,101.0,101.0,13.4,1505.2,326.3,-0.8,1.8,2470.569,13.28,0.095,272.4
2021-05-19T01:28:03,42.805,6.029,-0.081,0.025,0.013,103.0,103.0,101.0,13.4,1505.2,329.0,-0.8,1.8,2470.606,13.28,0.084,287.1
2021-05-19T01:31:03,42.805,6.029,-0.059,-0.009,-0.008,102.0,102.0,100.0,13.4,1505.2,327.2,-0.7,1.8,2470.538,13.28,0.059,261.3
2021-05-19T01:34:03,42.805,6.029,-0.071,0.026,0.034,102.0,102.0,100.0,13.4,1505.2,329.0,-0.8,1.8,2470.532,13.28,0.075,290.1
2021-05-19T01:37:03,42.805,6.029,-0.067,0.0,-0.02,102.0,101.0,101.0,13.4,1505.2,326.0,-0.8,1.8,2470.556,13.28,0.066,270.0
2021-05-19T01:40:03,42.805,6.029,-0.075,-0.002,-0.004,102.0,100.0,103.0,13.4,1505.2,325.0,-0.8,1.8,2470.55,13.28,0.075,268.5
2021-05-19T01:43:03,42.805,6.029,-0.073,0.024,-0.012,101.0,100.0,102.0,13.4,1505.2,326.3,-0.7,1.8,2470.552,13.28,0.076,288.2
2021-05-19T01:46:03,42.805,6.029,-0.089,0.03,-0.007,103.0,103.0,99.0,13.4,1505.2,324.7,-0.8,1.8,2470.569,13.28,0.093,288.6
2021-05-19T01:49:03,42.805,6.029,-0.072,0.015,-0.007,103.0,103.0,101.0,13.4,1505.2,325.7,-0.8,1.8,2470.548,13.28,0.073,281.8
2021-05-19T01:52:03,42.805,6.029,-0.069,0.022,-0.015,101.0,103.0,101.0,13.4,1505.2,329.3,-0.8,1.8,2470.528,13.28,0.072,287.7
2021-05-19T01:55:03,42.805,6.029,-0.061,0.015,0.014,102.0,102.0,102.0,13.4,1505.2,327.9,-0.7,1.8,2470.544,13.28,0.062,283.8
2021-05-19T01:58:03,42.805,6.029,-0.052,0.006,-0.023,101.0,102.0,102.0,13.3,1505.2,326.4,-0.7,1.8,2470.56,13.28,0.052,276.6
2021-05-19T02:04:03,42.805,6.029,-0.085,0.033,0.002,102.0,103.0,100.0,13.4,1505.2,329.3,-0.8,1.8,2470.564,13.28,0.091,291.2
2021-05-19T02:07:03,42.805,6.029,-0.08,0.02,-0.028,104.0,102.0,101.0,13.4,1505.2,326.0,-0.8,1.8,2470.533,13.28,0.082,284.0
2021-05-19T02:10:03,42.805,6.029,-0.069,-0.017,-0.038,102.0,101.0,101.0,13.4,1505.2,326.1,-0.7,1.8,2470.54,13.28,0.071,256.2
2021-05-19T02:13:03,42.805,6.029,-0.079,0.013,0.011,104.0,102.0,100.0,13.4,1505.2,326.0,-0.8,1.8,2470.536,13.28,0.08,279.3
2021-05-19T02:16:03,42.805,6.029,-0.075,0.003,-0.038,103.0,102.0,100.0,13.4,1505.2,328.4,-0.8,1.8,2470.536,13.28,0.075,272.3
2021-05-19T02:19:03,42.805,6.029,-0.049,-0.006,0.005,102.0,100.0,101.0,13.4,1505.2,328.1,-0.7,1.8,2470.514,13.28,0.049,263.0
2021-05-19T02:22:03,42.805,6.029,-0.072,0.0,0.002,104.0,102.0,100.0,13.4,1505.2,328.8,-0.7,1.8,2470.538,13.28,0.071,270.0
2021-05-19T02:25:03,42.805,6.029,-0.075,0.017,0.0,102.0,102.0,101.0,13.4,1505.2,327.6,-0.8,1.8,2470.523,13.28,0.076,282.8
2021-05-19T02:28:03,42.805,6.029,-0.078,0.013,0.021,103.0,102.0,100.0,13.4,1505.2,324.8,-0.7,1.9,2470.521,13.28,0.079,279.5
2021-05-19T02:31:03,42.805,6.029,-0.073,0.017,-0.027,102.0,102.0,100.0,13.4,1505.2,325.8,-0.8,1.8,2470.562,13.28,0.074,283.1
2021-05-19T02:34:03,42.805,6.029,-0.077,0.013,-0.003,103.0,102.0,102.0,13.4,1505.2,324.2,-0.8,1.8,2470.564,13.28,0.078,279.6
2021-05-19T02:37:03,42.805,6.029,-0.076,0.024,0.004,102.0,102.0,101.0,13.4,1505.2,327.8,-0.7,1.8,2470.531,13.28,0.079,287.5
2021-05-19T02:40:03,42.805,6.029,-0.083,-0.001,-0.015,103.0,102.0,100.0,13.4,1505.2,326.0,-0.8,1.8,2470.513,13.28,0.083,269.3
2021-05-19T02:43:03,42.805,6.029,-0.079,0.026,-0.005,102.0,101.0,101.0,13.4,1505.2,329.6,-0.8,1.8,2470.547,13.28,0.083,288.2
2021-05-19T02:46:03,42.805,6.029,-0.078,0.014,0.011,101.0,103.0,101.0,13.4,1505.2,327.2,-0.7,1.8,2470.497,13.28,0.079,280.2
2021-05-19T02:49:03,42.805,6.029,-0.052,-0.01,0.001,102.0,103.0,101.0,13.3,1505.2,326.7,-0.8,1.9,2470.503,13.28,0.052,259.1
2021-05-19T02:52:03,42.805,6.029,-0.091,0.009,0.006,102.0,102.0,101.0,13.4,1505.2,327.8,-0.8,1.8,2470.534,13.28,0.091,275.6
2021-05-19T02:55:03,42.805,6.029,-0.061,0.004,-0.046,102.0,103.0,102.0,13.4,1505.2,329.3,-0.7,1.8,2470.534,13.28,0.061,273.7
2021-05-19T02:58:03,42.805,6.029,-0.082,0.023,-0.004,102.0,102.0,100.0,13.3,1505.2,328.6,-0.7,1.8,2470.526,13.28,0.085,285.7
2021-05-19T03:04:03,42.805,6.029,-0.069,0.026,0.021,103.0,103.0,100.0,13.3,1505.2,327.0,-0.8,1.8,2470.547,13.28,0.073,290.6
2021-05-19T03:07:03,42.805,6.029,-0.052,0.006,0.016,102.0,101.0,101.0,13.4,1505.2,327.8,-0.7,1.9,2470.559,13.28,0.052,276.6
2021-05-19T03:10:03,42.805,6.029,-0.047,0.025,-0.025,104.0,102.0,101.0,13.4,1505.2,325.7,-0.7,1.8,2470.519,13.28,0.053,298.0
2021-05-19T03:13:03,42.805,6.029,-0.061,0.007,0.019,102.0,101.0,102.0,13.4,1505.2,326.3,-0.8,1.9,2470.556,13.28,0.061,276.5
2021-05-19T03:16:03,42.805,6.029,-0.065,0.003,0.008,101.0,103.0,101.0,13.3,1505.2,329.2,-0.7,1.8,2470.564,13.28,0.065,272.6
2021-05-19T03:19:03,42.805,6.029,-0.078,0.022,0.006,101.0,102.0,101.0,13.4,1505.2,327.3,-0.8,1.8,2470.542,13.28,0.081,285.7
2021-05-19T03:22:03,42.805,6.029,-0.07,0.012,-0.014,103.0,103.0,102.0,13.4,1505.2,328.7,-0.8,1.8,2470.512,13.28,0.071,279.7
2021-05-19T03:25:03,42.805,6.029,-0.062,0.009,0.026,102.0,103.0,100.0,13.3,1505.2,324.3,-0.7,1.8,2470.507,13.28,0.062,278.3
2021-05-19T03:28:03,42.805,6.029,-0.086,-0.003,0.006,102.0,102.0,101.0,13.4,1505.2,328.3,-0.7,1.8,2470.515,13.28,0.086,268.0
2021-05-19T03:31:03,42.805,6.029,-0.063,0.0,-0.024,102.0,103.0,100.0,13.4,1505.2,325.4,-0.7,1.8,2470.533,13.28,0.062,270.0
2021-05-19T03:34:03,42.805,6.029,-0.058,-0.014,-0.005,102.0,102.0,101.0,13.4,1505.2,326.2,-0.8,1.8,2470.48,13.28,0.059,256.4
2021-05-19T03:37:03,42.805,6.029,-0.046,-0.001,0.016,102.0,102.0,101.0,13.4,1505.2,325.2,-0.8,1.8,2470.56,13.28,0.046,268.8
2021-05-19T03:40:03,42.805,6.029,-0.05,-0.009,-0.023,104.0,102.0,101.0,13.3,1505.2,329.4,-0.8,1.8,2470.496,13.28,0.05,259.8
2021-05-19T03:43:03,42.805,6.029,-0.051,0.009,-0.007,104.0,101.0,101.0,13.3,1505.2,327.9,-0.8,1.9,2470.498,13.28,0.051,280.0
2021-05-19T03:46:03,42.805,6.029,-0.077,-0.001,-0.012,102.0,102.0,101.0,13.4,1505.2,325.8,-0.7,1.8,2470.521,13.28,0.077,269.3
2021-05-19T03:49:03,42.805,6.029,-0.069,0.0,-0.01,103.0,102.0,101.0,13.3,1505.2,326.8,-0.7,1.8,2470.5,13.28,0.068,270.0
2021-05-19T03:52:03,42.805,6.029,-0.079,0.007,-0.033,102.0,104.0,100.0,13.4,1505.2,324.1,-0.7,1.8,2470.495,13.28,0.079,275.1
2021-05-19T03:55:03,42.805,6.029,-0.056,0.007,0.007,103.0,101.0,101.0,13.4,1505.2,326.4,-0.7,1.8,2470.511,13.28,0.056,277.1
2021-05-19T03:58:03,42.805,6.029,-0.069,0.008,-0.012,101.0,102.0,101.0,13.4,1505.2,326.1,-0.8,1.8,2470.518,13.28,0.069,276.6
2021-05-19T04:04:03,42.805,6.029,-0.057,0.0,-0.01,102.0,101.0,101.0,13.3,1505.2,325.6,-0.8,1.8,2470.514,13.28,0.057,270.0
2021-05-19T04:07:03,42.805,6.029,-0.075,-0.006,-0.034,103.0,100.0,101.0,13.4,1505.2,325.8,-0.8,1.9,2470.46,13.28,0.075,265.4
2021-05-19T04:10:03,42.805,6.029,-0.067,0.01,-0.013,102.0,102.0,101.0,13.4,1505.2,326.7,-0.7,1.8,2470.522,13.28,0.067,278.5
2021-05-19T04:13:03,42.805,6.029,-0.071,0.011,-0.015,102.0,101.0,101.0,13.4,1505.2,327.5,-0.8,1.8,2470.496,13.28,0.071,278.8
2021-05-19T04:16:03,42.805,6.029,-0.07,-0.003,-0.023,102.0,102.0,100.0,13.4,1505.2,325.0,-0.7,1.8,2470.504,13.28,0.07,267.6
2021-05-19T04:19:03,42.805,6.029,-0.064,0.025,-0.006,101.0,102.0,101.0,13.3,1505.2,325.4,-0.8,1.9,2470.511,13.28,0.068,291.3
2021-05-19T04:22:03,42.805,6.029,-0.067,0.029,0.022,102.0,103.0,101.0,13.4,1505.2,329.6,-0.8,1.8,2470.495,13.28,0.073,293.4
2021-05-19T04:25:03,42.805,6.029,-0.09,0.019,-0.016,101.0,102.0,100.0,13.4,1505.2,327.3,-0.7,1.8,2470.541,13.28,0.091,281.9
2021-05-19T04:28:03,42.805,6.029,-0.087,0.021,0.021,101.0,101.0,102.0,13.4,1505.2,326.1,-0.8,1.8,2470.482,13.28,0.089,283.6
2021-05-19T04:31:03,42.805,6.029,-0.037,-0.003,-0.01,101.0,103.0,101.0,13.4,1505.2,326.3,-0.7,1.8,2470.511,13.28,0.037,265.4
2021-05-19T04:34:03,42.805,6.029,-0.06,0.0,-0.007,101.0,101.0,101.0,13.4,1505.2,329.5,-0.7,1.8,2470.493,13.28,0.06,270.0
2021-05-19T04:37:03,42.805,6.029,-0.097,0.005,-0.025,102.0,101.0,102.0,13.4,1505.2,326.2,-0.7,1.8,2470.471,13.28,0.097,272.9
2021-05-19T04:40:03,42.805,6.029,-0.087,0.005,-0.023,102.0,101.0,101.0,13.4,1505.2,326.0,-0.8,1.8,2470.515,13.28,0.087,273.3
2021-05-19T04:43:03,42.805,6.029,-0.054,0.001,-0.009,102.0,102.0,101.0,13.4,1505.2,329.3,-0.8,1.8,2470.466,13.28,0.054,271.1
2021-05-19T04:46:03,42.805,6.029,-0.078,0.004,-0.015,103.0,102.0,99.0,13.4,1505.2,328.2,-0.7,1.8,2470.526,13.28,0.078,272.9
2021-05-19T04:49:03,42.805,6.029,-0.076,-0.002,-0.029,101.0,101.0,101.0,13.4,1505.2,324.4,-0.8,1.8,2470.452,13.28,0.076,268.5
2021-05-19T04:52:03,42.805,6.029,-0.078,-0.003,-0.017,102.0,101.0,101.0,13.4,1505.2,328.0,-0.7,1.8,2470.463,13.28,0.078,267.8
2021-05-19T04:55:03,42.805,6.029,-0.087,0.014,-0.014,103.0,102.0,100.0,13.4,1505.2,327.4,-0.8,1.8,2470.459,13.28,0.088,279.1
2021-05-19T04:58:03,42.805,6.029,-0.079,0.0,-0.029,101.0,101.0,100.0,13.4,1505.2,327.8,-0.8,1.8,2470.52,13.28,0.078,270.0
2021-05-19T05:04:03,42.805,6.029,-0.062,0.009,-0.011,102.0,101.0,101.0,13.4,1505.2,329.2,-0.8,1.8,2470.525,13.28,0.062,278.3
2021-05-19T05:07:03,42.805,6.029,-0.068,0.005,-0.004,101.0,102.0,100.0,13.4,1505.2,326.2,-0.7,1.8,2470.515,13.28,0.068,274.2
2021-05-19T05:10:03,42.805,6.029,-0.044,0.008,0.015,102.0,102.0,99.0,13.4,1505.2,326.1,-0.8,1.8,2470.509,13.28,0.044,280.3
2021-05-19T05:13:03,42.805,6.029,-0.062,0.02,-0.002,102.0,100.0,101.0,13.4,1505.2,329.1,-0.7,1.8,2470.459,13.28,0.065,287.9
2021-05-19T05:16:03,42.805,6.029,-0.052,0.004,0.01,102.0,102.0,102.0,13.3,1505.2,324.8,-0.7,1.8,2470.474,13.28,0.052,274.4
2021-05-19T05:19:03,42.805,6.029,-0.086,0.03,0.015,102.0,102.0,99.0,13.3,1505.2,327.9,-0.7,1.8,2470.515,13.28,0.091,289.2
2021-05-19T05:22:03,42.805,6.029,-0.102,0.024,0.006,101.0,102.0,100.0,13.4,1505.2,327.4,-0.7,1.8,2470.472,13.28,0.104,283.2
2021-05-19T05:25:03,42.805,6.029,-0.088,0.01,-0.014,103.0,101.0,100.0,13.3,1505.2,327.2,-0.7,1.8,2470.454,13.28,0.088,276.5
2021-05-19T05:28:03,42.805,6.029,-0.051,-0.011,-0.019,102.0,100.0,100.0,13.4,1505.2,328.4,-0.7,1.8,2470.458,13.28,0.052,257.8
2021-05-19T05:31:03,42.805,6.029,-0.053,0.005,0.005,102.0,101.0,100.0,13.3,1505.2,327.8,-0.8,1.8,2470.447,13.28,0.053,275.4
2021-05-19T05:34:03,42.805,6.029,-0.069,-0.006,-0.011,102.0,101.0,100.0,13.4,1505.2,328.1,-0.7,1.8,2470.461,13.28,0.069,265.0
2021-05-19T05:37:03,42.805,6.029,-0.07,-0.022,-0.02,101.0,101.0,101.0,13.3,1505.2,328.1,-0.7,1.8,2470.465,13.28,0.073,252.6
2021-05-19T05:40:03,42.805,6.029,-0.042,0.017,0.017,101.0,101.0,100.0,13.3,1505.2,328.8,-0.8,1.8,2470.464,13.28,0.045,292.0
2021-05-19T05:43:03,42.805,6.029,-0.068,0.0,-0.007,102.0,101.0,101.0,13.4,1505.2,324.8,-0.8,1.8,2470.43,13.28,0.067,270.0
2021-05-19T05:46:03,42.805,6.029,-0.078,0.005,-0.03,102.0,100.0,101.0,13.4,1505.2,327.2,-0.7,1.8,2470.414,13.28,0.078,273.7
2021-05-19T05:49:03,42.805,6.029,-0.061,0.0,0.022,102.0,101.0,100.0,13.4,1505.2,329.2,-0.7,1.8,2470.464,13.28,0.06,270.0
2021-05-19T05:52:03,42.805,6.029,-0.079,-0.003,0.018,100.0,101.0,102.0,13.3,1505.2,325.3,-0.8,1.8,2470.465,13.28,0.079,267.8
2021-05-19T05:55:03,42.805,6.029,-0.076,0.007,0.022,101.0,102.0,100.0,13.4,1505.2,327.2,-0.8,1.8,2470.442,13.28,0.076,275.3
2021-05-19T05:58:03,42.805,6.029,-0.059,0.008,-0.011,102.0,101.0,101.0,13.4,1505.2,326.3,-0.8,1.8,2470.48,13.28,0.059,277.7
2021-05-19T06:04:03,42.805,6.029,-0.073,0.021,-0.012,102.0,102.0,100.0,13.4,1505.2,327.3,-0.8,1.9,2470.469,13.28,0.075,286.0
2021-05-19T06:07:03,42.805,6.029,-0.056,0.007,-0.006,102.0,101.0,100.0,13.4,1505.2,324.6,-0.8,1.9,2470.467,13.28,0.056,277.1
2021-05-19T06:10:03,42.805,6.029,-0.052,0.003,0.014,102.0,101.0,100.0,13.4,1505.2,328.0,-0.7,1.8,2470.48,13.28,0.052,273.3
2021-05-19T06:13:03,42.805,6.029,-0.055,0.011,-0.019,103.0,100.0,101.0,13.4,1505.2,328.7,-0.7,1.8,2470.448,13.28,0.056,281.3
2021-05-19T06:16:03,42.805,6.029,-0.077,-0.011,-0.052,101.0,101.0,101.0,13.4,1505.2,327.8,-0.8,1.8,2470.459,13.28,0.077,261.9
2021-05-19T06:19:03,42.805,6.029,-0.086,0.015,0.006,101.0,101.0,100.0,13.3,1505.2,324.8,-0.8,1.8,2470.46,13.28,0.087,279.9
2021-05-19T06:22:03,42.805,6.029,-0.082,-0.007,-0.023,101.0,102.0,100.0,13.4,1505.2,328.5,-0.8,1.8,2470.447,13.28,0.082,265.1
2021-05-19T06:25:03,42.805,6.029,-0.067,0.001,-0.003,101.0,102.0,100.0,13.3,1505.2,324.4,-0.7,1.8,2470.479,13.28,0.067,270.9
2021-05-19T06:28:03,42.805,6.029,-0.052,-0.011,-0.032,102.0,102.0,100.0,13.3,1505.2,327.0,-0.8,1.8,2470.471,13.28,0.053,258.1
2021-05-19T06:31:03,42.805,6.029,-0.072,0.015,0.012,101.0,101.0,100.0,13.3,1505.2,324.7,-0.8,1.8,2470.435,13.28,0.073,281.8
2021-05-19T06:34:03,42.805,6.029,-0.074,0.014,-0.013,101.0,101.0,100.0,13.4,1505.2,327.9,-0.7,1.8,2470.467,13.28,0.075,280.7
2021-05-19T06:37:03,42.805,6.029,-0.062,0.004,-0.011,102.0,101.0,101.0,13.4,1505.2,326.0,-0.7,1.8,2470.43,13.28,0.062,273.7
2021-05-19T06:40:03,42.805,6.029,-0.103,0.007,-0.018,102.0,103.0,100.0,13.4,1505.2,326.3,-0.7,1.8,2470.481,13.28,0.103,273.9
2021-05-19T06:43:03,42.805,6.029,-0.064,0.005,0.022,102.0,101.0,100.0,13.4,1505.2,329.1,-0.7,1.8,2470.426,13.28,0.064,274.5
2021-05-19T06:46:03,42.805,6.029,-0.066,0.002,-0.003,101.0,102.0,101.0,13.3,1505.2,324.9,-0.7,1.8,2470.448,13.28,0.066,271.7
2021-05-19T06:49:03,42.805,6.029,-0.062,-0.011,-0.033,102.0,101.0,100.0,13.4,1505.2,325.7,-0.8,1.8,2470.454,13.28,0.062,259.9
2021-05-19T06:52:03,42.805,6.029,-0.086,-0.011,-0.023,102.0,101.0,100.0,13.4,1505.2,328.1,-0.7,1.8,2470.438,13.28,0.086,262.7
2021-05-19T06:55:03,42.805,6.029,-0.087,0.018,-0.035,102.0,101.0,100.0,13.4,1505.2,326.9,-0.7,1.8,2470.457,13.28,0.088,281.7
2021-05-19T06:58:03,42.805,6.029,-0.067,-0.01,0.0,102.0,101.0,101.0,13.4,1505.2,329.6,-0.7,1.8,2470.446,13.28,0.067,261.5
2021-05-19T07:04:03,42.805,6.029,-0.06,-0.019,-0.045,101.0,102.0,100.0,13.4,1505.2,325.6,-0.7,1.8,2470.499,13.28,0.062,252.4
2021-05-19T07:07:03,42.805,6.029,-0.054,0.002,-0.028,102.0,102.0,100.0,13.3,1505.2,329.1,-0.7,1.8,2470.421,13.28,0.054,272.1
2021-05-19T07:10:03,42.805,6.029,-0.053,0.002,0.003,101.0,103.0,100.0,13.3,1505.2,326.1,-0.8,1.8,2470.41,13.28,0.053,272.2
2021-05-19T07:13:03,42.805,6.029,-0.058,-0.02,-0.025,101.0,102.0,101.0,13.4,1505.2,326.2,-0.8,1.8,2470.478,13.28,0.061,251.0
2021-05-19T07:16:03,42.805,6.029,-0.048,-0.015,-0.031,102.0,101.0,101.0,13.4,1505.2,328.5,-0.8,1.8,2470.449,13.28,0.05,252.6
2021-05-19T07:19:03,42.805,6.029,-0.034,0.0,0.032,102.0,101.0,101.0,13.4,1505.2,329.2,-0.7,1.8,2470.429,13.28,0.034,270.0
2021-05-19T07:22:03,42.805,6.029,-0.052,-0.02,-0.001,103.0,101.0,101.0,13.4,1505.2,329.0,-0.8,1.8,2470.442,13.28,0.055,249.0
2021-05-19T07:25:03,42.805,6.029,-0.072,0.016,-0.011,102.0,101.0,101.0,13.4,1505.2,328.1,-0.8,1.8,2470.48,13.28,0.073,282.5
2021-05-19T07:28:03,42.805,6.029,-0.075,-0.002,-0.004,101.0,102.0,101.0,13.3,1505.2,324.7,-0.7,1.8,2470.445,13.28,0.075,268.5
2021-05-19T07:31:03,42.805,6.029,-0.079,-0.006,-0.008,101.0,101.0,101.0,13.4,1505.2,325.7,-0.8,1.9,2470.429,13.28,0.079,265.7
2021-05-19T07:34:03,42.805,6.029,-0.071,0.001,0.039,102.0,102.0,101.0,13.3,1505.2,328.4,-0.8,1.8,2470.432,13.28,0.071,270.8
2021-05-19T07:37:03,42.805,6.029,-0.053,-0.009,0.006,102.0,102.0,101.0,13.4,1505.2,325.2,-0.8,1.8,2470.414,13.28,0.053,260.4
2021-05-19T07:40:03,42.805,6.029,-0.057,-0.006,0.012,102.0,101.0,101.0,13.3,1505.2,327.1,-0.8,1.9,2470.461,13.28,0.057,264.0
2021-05-19T07:43:03,42.805,6.029,-0.053,0.011,0.005,102.0,101.0,101.0,13.4,1505.2,328.5,-0.7,1.8,2470.467,13.28,0.054,281.7
2021-05-19T07:46:03,42.805,6.029,-0.058,-0.016,0.002,103.0,102.0,101.0,13.4,1505.2,327.4,-0.7,1.8,2470.48,13.28,0.06,254.6
2021-05-19T07:49:03,42.805,6.029,-0.049,-0.021,-0.008,101.0,103.0,100.0,13.4,1505.2,325.1,-0.8,1.9,2470.47,13.28,0.053,246.8
2021-05-19T07:52:03,42.805,6.029,-0.057,0.011,0.04,102.0,101.0,101.0,13.4,1505.2,327.2,-0.7,1.8,2470.438,13.28,0.058,280.9
2021-05-19T07:55:03,42.805,6.029,-0.045,0.001,-0.031,102.0,102.0,101.0,13.4,1505.2,325.9,-0.7,1.8,2470.442,13.28,0.045,271.3
2021-05-19T07:58:03,42.805,6.029,-0.024,0.0,0.005,103.0,102.0,101.0,13.3,1505.2,325.8,-0.8,1.8,2470.442,13.28,0.024,270.0
2021-05-19T08:04:03,42.805,6.029,-0.062,-0.016,0.009,103.0,102.0,101.0,13.4,1505.2,327.2,-0.8,1.8,2470.444,13.28,0.064,255.5
2021-05-19T08:07:03,42.805,6.029,-0.047,-0.018,0.003,103.0,101.0,101.0,13.4,1505.2,324.3,-0.7,1.8,2470.477,13.28,0.05,249.0
2021-05-19T08:10:03,42.805,6.029,-0.035,-0.012,-0.01,103.0,102.0,101.0,13.4,1505.2,328.1,-0.8,1.8,2470.44,13.28,0.037,251.1
2021-05-19T08:13:03,42.805,6.029,-0.047,-0.013,-0.012,103.0,102.0,101.0,13.4,1505.2,326.1,-0.7,1.8,2470.473,13.28,0.048,254.5
2021-05-19T08:16:03,42.805,6.029,-0.026,0.015,-0.019,104.0,102.0,101.0,13.3,1505.2,326.1,-0.8,1.8,2470.443,13.28,0.03,300.0
2021-05-19T08:19:03,42.805,6.029,-0.06,-0.021,-0.018,103.0,101.0,102.0,13.4,1505.2,324.2,-0.7,1.9,2470.419,13.28,0.063,250.7
2021-05-19T08:22:03,42.805,6.029,-0.06,-0.007,-0.023,102.0,101.0,101.0,13.3,1505.2,325.6,-0.7,1.8,2470.468,13.28,0.06,263.3
2021-05-19T08:25:03,42.805,6.029,-0.083,0.0,-0.038,102.0,101.0,101.0,13.4,1505.2,324.6,-0.7,1.8,2470.388,13.28,0.082,270.0
2021-05-19T08:28:03,42.805,6.029,-0.059,-0.011,-0.03,102.0,102.0,101.0,13.3,1505.2,328.1,-0.7,1.8,2470.43,13.28,0.06,259.4
2021-05-19T08:31:03,42.805,6.029,-0.058,-0.003,0.008,103.0,101.0,100.0,13.3,1505.2,326.7,-0.7,1.8,2470.407,13.28,0.058,267.0
2021-05-19T08:34:03,42.805,6.029,-0.073,0.0,-0.013,102.0,104.0,100.0,13.4,1505.2,325.8,-0.8,1.8,2470.448,13.28,0.072,270.0
2021-05-19T08:37:03,42.805,6.029,-0.067,0.01,0.0,102.0,101.0,101.0,13.4,1505.2,327.4,-0.7,1.8,2470.386,13.28,0.067,278.5
2021-05-19T08:40:03,42.805,6.029,-0.077,0.0,0.006,102.0,102.0,101.0,13.3,1505.2,326.8,-0.8,1.9,2470.428,13.28,0.076,270.0
2021-05-19T08:43:03,42.805,6.029,-0.033,-0.016,-0.025,102.0,102.0,101.0,13.4,1505.2,329.6,-0.7,1.8,2470.414,13.28,0.036,244.1
2021-05-19T08:46:03,42.805,6.029,-0.078,-0.005,0.016,103.0,102.0,101.0,13.4,1505.2,326.6,-0.7,1.8,2470.433,13.28,0.078,266.3
2021-05-19T08:49:03,42.805,6.029,-0.067,-0.007,-0.008,103.0,102.0,101.0,13.4,1505.2,327.4,-0.7,1.8,2470.403,13.28,0.067,264.0
2021-05-19T08:52:03,42.805,6.029,-0.057,-0.019,0.008,102.0,102.0,101.0,13.4,1505.2,327.2,-0.8,1.8,2470.45,13.28,0.06,251.6
2021-05-19T08:55:03,42.805,6.029,-0.05,-0.006,-0.002,102.0,102.0,101.0,13.3,1505.2,327.1,-0.8,1.8,2470.409,13.28,0.05,263.2
2021-05-19T08:58:03,42.805,6.029,-0.048,-0.005,-0.006,103.0,105.0,101.0,13.4,1505.2,327.5,-0.8,1.8,2470.407,13.28,0.048,264.1
2021-05-19T09:04:03,42.805,6.029,-0.049,-0.004,-0.015,101.0,103.0,101.0,13.4,1505.2,325.2,-0.7,1.8,2470.443,13.28,0.049,265.3
2021-05-19T09:07:03,42.805,6.029,-0.061,-0.035,-0.008,103.0,102.0,102.0,13.4,1505.2,325.8,-0.8,1.8,2470.454,13.28,0.07,240.2
2021-05-19T09:10:03,42.805,6.029,-0.065,-0.029,-0.029,102.0,102.0,102.0,13.4,1505.2,327.5,-0.7,1.8,2470.47,13.28,0.071,246.0
2021-05-19T09:13:03,42.805,6.029,-0.049,-0.031,-0.045,103.0,102.0,101.0,13.3,1505.2,327.3,-0.8,1.8,2470.452,13.28,0.057,237.7
2021-05-19T09:16:03,42.805,6.029,-0.056,-0.019,-0.002,103.0,103.0,102.0,13.3,1505.2,328.2,-0.7,1.9,2470.438,13.28,0.059,251.3
2021-05-19T09:19:03,42.805,6.029,-0.074,-0.012,0.0,104.0,102.0,102.0,13.4,1505.2,327.2,-0.8,1.8,2470.453,13.28,0.074,260.8
2021-05-19T09:22:03,42.805,6.029,-0.054,-0.027,-0.017,102.0,103.0,102.0,13.3,1505.2,328.9,-0.8,1.8,2470.49,13.28,0.06,243.4
2021-05-19T09:25:03,42.805,6.029,-0.063,-0.021,0.0,103.0,103.0,100.0,13.3,1505.2,324.4,-0.8,1.8,2470.462,13.28,0.066,251.6
2021-05-19T09:28:03,42.805,6.029,-0.07,-0.005,0.027,101.0,104.0,100.0,13.3,1505.2,326.3,-0.8,1.9,2470.421,13.28,0.07,265.9
2021-05-19T09:31:03,42.805,6.029,-0.055,-0.017,-0.011,104.0,103.0,101.0,13.4,1505.2,328.9,-0.7,1.8,2470.466,13.28,0.057,252.8
2021-05-19T09:34:03,42.805,6.029,-0.072,0.007,-0.017,103.0,103.0,101.0,13.4,1505.2,326.9,-0.8,1.8,2470.462,13.28,0.072,275.5
2021-05-19T09:37:03,42.805,6.029,-0.071,-0.008,0.0,103.0,103.0,102.0,13.3,1505.2,328.3,-0.7,1.8,2470.442,13.28,0.071,263.6
2021-05-19T09:40:03,42.805,6.029,-0.058,-0.011,-0.017,103.0,103.0,101.0,13.4,1505.2,326.2,-0.7,1.8,2470.427,13.28,0.059,259.3
2021-05-19T09:43:03,42.805,6.029,-0.056,0.006,-0.011,103.0,103.0,101.0,13.4,1505.2,327.3,-0.7,1.8,2470.431,13.28,0.056,276.1
2021-05-19T09:46:03,42.805,6.029,-0.057,-0.004,-0.004,102.0,103.0,101.0,13.4,1505.2,326.3,-0.8,1.8,2470.45,13.28,0.057,266.0
2021-05-19T09:49:03,42.805,6.029,-0.056,-0.022,-0.017,103.0,102.0,101.0,13.3,1505.2,327.6,-0.8,1.8,2470.453,13.28,0.06,248.6
2021-05-19T09:52:03,42.805,6.029,-0.074,-0.018,-0.027,104.0,101.0,102.0,13.4,1505.2,328.7,-0.7,1.8,2470.43,13.28,0.076,256.3
2021-05-19T09:55:03,42.805,6.029,-0.066,-0.02,-0.015,104.0,101.0,101.0,13.4,1505.2,329.5,-0.7,1.8,2470.402,13.28,0.068,253.1